Wind_Speed
91 91 92 93 94 94 95 95 95 95 94 94 95 95 95 95 95 94 93 93 93 93 93 93 93 93 93 93 92 92 92 93 93 94 94 94 95 96 96 97 97 97 97 98 99 100 101 102 104 106 107 108 108 109 110 112 113 114 116 118 118 119 120 121 120 116 112 111 111 110 108 105 102 99 97 95 92 90 88 87 87 87 89 91 93
94 94 95 96 96 97 97 97 96 96 96 96 97 97 97 97 97 96 96 95 96 96 95 95 95 95 95 94 94 94 95 95 96 96 96 97 97 98 99 99 99 100 100 101 102 103 104 105 107 109 110 110 111 112 113 114 116 117 118 119 119 120 121 123 122 120 114 110 109 109 107 104 101 98 96 94 93 91 90 89 89 90 91 93 95
96 97 97 98 98 98 98 98 98 98 98 99 100 100 100 99 99 98 98 98 97 97 97 97 97 97 97 97 97 97 97 98 98 98 99 99 100 100 101 102 102 102 103 104 105 106 107 108 110 112 113 113 114 115 116 117 118 119 120 121 121 121 123 124 124 121 117 111 108 107 106 104 100 98 96 95 93 93 93 93 93 93 94 96 97
98 99 99 100 100 100 100 100 100 100 101 102 102 102 102 101 100 100 100 99 99 99 99 98 98 98 98 98 99 99 100 100 100 101 101 102 102 103 103 104 104 105 105 106 107 109 110 111 113 114 115 115 116 117 119 119 120 121 121 122 123 124 125 125 124 122 119 114 108 106 106 104 100 98 97 95 95 95 95 95 95 96 98 99 100
100 101 101 102 102 102 102 102 102 103 103 104 104 104 103 102 102 101 101 101 100 100 100 100 100 100 100 100 101 101 102 102 103 103 104 104 104 105 105 106 106 107 108 109 111 112 113 114 116 117 118 118 119 120 121 121 122 123 123 124 125 126 126 125 124 123 120 116 110 107 106 104 101 99 98 98 98 97 97 97 98 99 100 101 103
102 103 103 104 104 104 104 104 104 105 105 106 105 105 104 103 103 103 103 102 102 102 102 102 102 102 102 103 103 104 105 105 105 105 106 106 107 107 107 108 109 110 111 113 114 116 117 118 119 120 121 121 121 122 123 124 125 125 126 126 127 127 126 124 123 121 119 116 112 108 106 105 103 101 100 101 101 101 101 101 102 103 103 104 105
104 105 105 105 106 106 106 106 106 106 106 106 106 106 105 105 105 104 104 104 104 104 104 104 104 104 105 105 106 107 107 108 108 108 108 109 109 109 110 111 112 113 115 116 118 119 120 121 122 123 123 124 124 124 125 126 127 127 128 128 128 127 125 122 121 120 118 115 113 109 107 106 105 104 103 104 104 104 104 105 105 105 106 107 107
107 107 107 107 107 107 107 107 107 108 108 108 107 107 107 107 107 106 106 106 106 106 105 106 106 106 107 107 108 109 110 110 110 110 111 111 111 112 113 114 115 117 118 119 121 122 123 123 124 125 125 126 126 127 128 129 129 129 129 129 128 126 124 122 121 119 118 116 114 112 110 109 108 107 107 107 107 107 108 108 108 108 109 109 110
109 109 109 109 109 109 108 109 109 109 109 109 109 109 108 108 108 108 108 107 107 107 107 107 108 108 109 110 110 111 112 113 113 113 113 113 114 114 115 117 118 119 120 121 122 123 124 125 126 126 127 128 129 130 131 132 132 132 131 130 129 127 124 122 120 119 118 117 115 113 112 111 110 111 111 110 110 111 111 111 112 112 112 113 113
110 110 110 110 110 110 110 110 111 111 111 111 111 110 110 109 109 109 109 109 109 109 109 109 110 110 111 112 112 113 114 115 116 116 116 117 117 117 118 119 120 121 122 123 124 125 126 127 128 129 130 131 132 133 134 135 135 134 132 130 128 126 124 122 120 119 119 118 116 115 114 113 113 114 114 114 114 114 114 115 116 116 116 116 116
110 110 110 110 111 111 112 112 112 112 112 112 112 112 111 111 110 110 110 110 110 110 111 111 112 112 112 113 113 114 116 117 118 119 120 120 121 121 122 122 124 125 125 126 127 127 128 129 130 131 132 134 135 136 136 136 135 134 132 130 128 126 125 123 122 121 121 121 119 118 117 116 116 117 117 117 117 117 117 118 118 118 118 118 119
111 111 111 111 112 112 113 113 114 114 113 113 113 113 113 112 112 112 112 112 112 112 113 113 114 114 114 115 115 116 118 119 121 122 123 124 125 125 126 126 127 128 129 129 130 130 131 132 133 134 135 136 137 137 137 137 135 134 131 129 127 127 126 126 125 125 125 124 122 120 120 119 119 119 119 119 119 118 119 119 120 120 120 120 121
112 112 113 113 114 114 114 115 115 114 114 114 114 114 114 113 113 113 113 113 114 114 115 115 116 116 117 117 118 119 120 122 124 126 127 128 129 129 129 129 130 130 131 132 133 134 135 135 136 137 137 138 139 139 138 137 135 133 130 128 127 127 127 128 128 128 128 127 125 122 122 122 122 121 121 121 121 121 121 121 121 121 121 122 123
113 114 115 115 116 116 116 116 116 116 115 115 115 115 115 114 115 115 115 115 115 116 116 117 118 118 119 119 120 121 123 125 127 129 129 130 131 131 131 132 132 133 134 135 136 137 138 138 138 139 139 140 140 139 138 137 134 132 130 128 128 127 127 128 129 130 131 130 128 125 125 126 126 125 124 124 124 124 123 123 124 124 124 124 125
116 116 117 117 117 117 117 117 117 116 116 116 116 116 116 116 116 116 116 116 117 117 118 119 119 120 121 122 123 124 126 128 129 130 131 132 133 134 134 134 135 136 137 138 139 140 140 140 140 140 140 140 139 139 138 137 135 133 131 130 129 129 129 129 131 132 133 132 131 130 131 132 131 131 130 129 129 128 127 127 127 127 127 127 127
118 118 118 118 118 118 118 118 117 117 117 117 117 118 118 118 118 118 118 118 119 119 120 120 121 123 124 126 126 126 127 129 131 132 133 134 136 137 137 138 139 140 140 141 141 141 141 142 141 141 140 139 139 139 139 139 137 135 133 131 131 130 130 132 134 135 135 135 136 136 137 136 136 136 135 134 133 132 131 130 130 130 130 129 129
119 119 119 119 119 119 119 119 118 119 119 119 119 119 119 119 120 120 120 120 121 121 122 124 125 126 127 128 128 128 128 130 132 134 136 138 139 141 142 143 143 143 143 143 143 143 143 143 143 142 141 140 140 139 140 140 139 137 135 133 133 133 133 135 137 138 138 139 139 140 140 140 139 139 138 137 137 136 134 133 132 131 131 130 129
120 120 120 120 120 120 120 120 120 120 120 120 120 120 121 121 121 122 122 123 124 125 126 126 127 128 128 129 130 130 131 132 134 137 139 142 144 145 146 146 146 145 145 145 144 143 143 143 143 143 143 142 140 140 140 140 140 139 138 137 136 136 137 139 140 140 141 142 142 143 142 141 141 140 139 139 138 137 135 134 132 130 129 127 125
121 121 121 121 121 120 120 120 120 120 120 121 121 122 122 123 124 125 126 126 127 127 128 128 128 128 130 131 132 133 134 136 138 141 143 145 146 147 148 148 147 147 146 145 144 143 143 143 143 143 143 142 141 140 139 140 141 140 140 139 138 139 140 141 141 141 142 143 144 143 143 142 141 140 139 138 136 134 133 131 129 127 124 122 119
121 121 121 121 121 121 121 121 121 122 122 123 124 125 126 126 127 128 128 129 129 129 130 130 130 131 132 134 136 138 139 141 142 144 145 147 148 149 149 149 149 148 147 146 144 143 143 142 142 142 143 142 141 140 140 141 142 142 142 142 141 141 141 142 142 142 142 143 142 142 141 140 139 137 136 134 132 129 127 125 123 120 117 115 113
121 121 122 122 122 122 123 123 124 124 125 126 126 127 128 129 129 129 130 130 131 132 133 134 135 135 136 138 140 142 143 144 144 145 146 147 149 149 150 150 150 150 148 147 145 144 143 142 141 141 141 142 142 142 143 144 145 145 145 145 145 145 144 143 142 142 141 141 139 138 136 135 133 131 129 127 125 122 120 118 116 114 110 108 105
122 123 123 124 124 125 126 126 127 127 127 128 128 129 130 130 131 132 133 134 135 136 137 139 140 140 141 142 143 144 145 145 146 146 147 148 149 150 150 150 150 149 149 147 146 144 143 142 141 141 142 143 144 145 146 147 147 147 148 148 147 146 145 143 141 139 138 136 133 131 129 127 125 123 121 119 117 115 113 111 109 107 104 101 99
124 124 125 125 126 127 127 127 128 128 129 130 130 131 132 133 134 136 137 138 140 141 142 143 144 144 144 144 145 145 146 146 146 147 147 148 148 149 149 149 150 149 149 147 146 145 144 144 144 144 145 145 146 147 147 147 147 147 147 146 145 143 141 138 135 132 130 127 124 122 121 119 117 116 114 112 110 108 107 105 103 101 98 96 94
125 125 126 126 127 127 128 128 129 130 131 132 134 135 136 137 139 140 142 143 144 145 146 147 148 148 148 147 147 146 146 146 145 145 146 147 147 147 148 149 149 149 148 148 147 147 147 147 147 147 147 147 147 147 146 145 144 142 140 139 137 134 132 129 126 124 121 118 117 115 114 112 111 109 107 105 104 102 101 99 97 96 94 92 90
125 126 127 127 128 129 130 131 132 134 135 137 138 139 140 142 143 144 146 147 148 149 150 150 151 151 150 149 148 147 146 145 144 144 145 146 147 147 147 148 148 149 150 150 151 151 151 150 149 148 146 145 144 141 139 136 134 132 130 128 126 124 123 121 119 116 114 112 110 109 108 106 105 103 102 100 98 97 96 95 93 91 89 88 87
127 128 129 129 131 132 133 135 136 138 140 141 142 144 145 146 147 148 149 151 151 152 152 152 152 151 151 150 148 147 146 145 145 145 146 147 147 147 147 148 149 151 152 153 153 152 150 148 146 144 141 139 136 133 130 127 125 123 122 120 118 117 116 115 113 110 108 106 105 104 102 101 100 99 97 95 94 93 92 91 89 88 86 85 84
129 131 132 133 135 136 138 140 141 142 144 145 147 148 149 150 150 151 152 152 152 152 152 151 151 151 151 150 149 148 147 146 146 146 146 147 147 147 148 149 151 152 152 152 150 147 144 141 138 136 133 131 129 126 123 121 119 117 116 114 113 112 111 110 108 106 104 102 101 100 98 97 96 95 93 92 91 90 89 88 86 85 84 83 82
134 135 137 138 140 141 142 143 144 146 147 148 149 150 150 151 151 151 151 151 151 151 151 151 151 152 152 151 150 149 147 146 146 147 147 148 148 149 149 149 149 149 148 145 142 138 135 132 130 128 127 125 123 121 119 117 115 114 112 111 109 108 107 106 105 103 101 99 98 97 95 94 93 92 91 89 88 88 87 86 85 83 82 81 81
138 139 140 142 143 144 145 146 147 148 149 149 150 149 149 149 149 148 149 150 151 151 152 152 152 153 153 152 151 150 148 147 148 148 149 149 149 149 148 147 144 142 139 137 134 130 128 126 124 123 122 120 119 117 115 114 112 111 110 108 107 106 105 104 102 101 99 97 96 95 93 92 91 90 89 88 87 87 86 85 83 82 81 81 80
141 142 143 144 145 146 147 148 149 149 149 149 148 148 147 148 148 148 149 150 151 152 153 154 154 154 153 153 152 152 152 152 152 151 150 148 146 145 143 141 138 135 132 131 128 126 124 122 121 119 118 118 116 114 113 111 110 108 107 106 105 104 103 102 101 99 97 96 95 93 92 91 90 90 88 88 87 86 85 84 83 82 81 81 80
143 144 145 146 147 147 148 148 148 148 148 148 148 147 147 148 149 150 150 151 152 153 154 154 155 156 155 155 155 154 154 154 153 151 148 144 140 137 135 134 132 130 129 128 126 123 122 120 118 116 115 115 113 111 110 108 107 105 104 103 102 101 100 99 98 97 95 94 93 92 91 90 90 89 88 87 87 86 84 83 82 82 81 81 81
145 146 146 147 147 147 147 147 147 148 148 149 149 149 149 149 149 150 151 152 153 154 154 155 156 157 158 158 158 156 153 151 148 145 142 138 135 132 130 128 127 127 127 126 124 121 120 118 115 113 112 111 109 108 106 105 103 102 101 100 99 98 97 96 95 94 92 91 91 90 89 89 88 88 87 86 86 85 83 82 82 81 81 81 81
145 146 146 146 146 146 147 147 148 148 149 150 150 151 152 152 151 151 151 152 153 154 156 157 157 157 157 157 155 153 150 145 141 137 135 133 131 130 128 126 125 125 125 124 121 118 116 114 111 109 108 107 105 104 103 102 100 99 98 97 96 95 94 93 91 90 89 88 88 87 87 87 86 86 85 84 84 83 82 81 81 81 81 81 81
144 144 144 145 145 146 147 148 149 150 150 151 152 153 154 154 154 154 153 152 152 153 154 155 155 154 153 151 149 146 144 140 137 133 131 130 130 129 127 124 122 121 120 119 117 114 112 110 108 107 106 104 102 101 100 99 98 96 95 94 92 91 90 89 88 87 85 85 84 84 84 83 83 83 82 82 81 80 80 80 80 80 80 80 79
143 143 144 145 146 147 148 150 150 151 152 153 154 155 155 156 156 156 155 154 153 151 150 149 148 147 146 144 142 139 137 135 134 132 130 128 127 126 124 121 117 115 114 114 112 111 109 107 106 104 103 101 99 97 96 95 94 92 90 89 88 87 86 85 84 83 82 81 81 80 80 79 79 79 79 79 78 78 78 78 79 79 78 76 75
143 144 145 147 148 149 150 151 152 153 154 155 155 156 156 156 156 156 155 154 152 149 145 142 139 138 138 138 138 136 134 132 131 130 128 126 124 122 119 116 113 111 109 108 107 106 105 104 103 101 99 97 95 93 92 91 89 87 85 84 83 82 81 81 80 79 78 77 77 76 76 76 76 76 76 76 76 76 76 76 76 75 74 73 72
144 146 147 148 150 151 152 153 154 155 155 156 156 156 156 156 155 154 152 150 147 144 141 138 135 134 134 134 134 133 131 129 127 126 124 122 120 118 116 113 110 107 104 102 101 101 101 101 100 98 96 94 92 90 88 86 85 83 81 80 79 79 78 77 76 75 74 73 73 73 73 73 73 73 73 73 73 73 72 72 71 71 70 71 71
146 148 149 150 151 152 153 154 155 155 155 155 155 154 153 153 151 150 148 146 143 141 138 136 134 133 132 131 131 129 127 124 122 121 119 118 117 115 113 110 107 103 101 99 98 98 98 99 98 96 95 93 91 90 87 85 82 80 79 78 77 76 75 74 73 72 71 70 70 70 70 70 70 70 70 69 69 69 68 68 68 69 69 70 70
148 150 151 152 152 153 154 154 154 153 153 152 152 151 151 150 149 147 145 142 140 138 136 134 133 132 130 129 128 125 122 120 118 117 115 114 112 110 108 107 105 102 100 98 97 97 97 97 96 95 94 92 91 89 87 84 82 79 78 77 76 75 74 72 71 70 69 69 68 68 67 67 66 66 66 66 66 66 66 67 67 68 68 69 70
150 151 151 152 152 152 152 151 151 151 150 150 150 149 149 147 146 144 142 139 137 135 134 132 130 128 127 126 125 122 119 116 114 113 112 110 109 107 105 104 102 100 98 97 96 96 95 95 94 93 92 90 89 87 85 83 81 79 77 76 75 74 73 72 71 70 69 68 67 66 65 65 64 64 65 65 65 66 66 67 67 68 69 70 71
149 150 150 150 151 150 150 150 150 149 149 148 147 146 145 144 142 140 138 136 134 132 130 128 126 124 123 122 121 119 116 113 111 110 110 109 107 105 102 99 97 96 95 94 94 93 93 91 90 89 88 87 86 84 82 81 79 77 76 75 74 73 72 71 71 70 69 68 66 65 65 64 64 64 65 65 66 66 67 67 68 69 69 70 71
149 149 150 150 150 150 150 149 148 147 146 144 143 142 141 140 139 137 135 133 131 128 126 123 121 120 119 118 116 114 113 111 110 109 107 106 104 101 98 95 93 92 91 91 91 91 90 88 87 86 85 85 84 82 80 79 77 76 75 74 73 72 72 71 70 69 68 67 66 66 65 65 65 65 65 66 66 67 67 68 68 69 70 70 71
149 149 149 149 148 147 146 145 143 142 141 140 140 139 138 137 135 133 131 129 126 124 122 120 118 116 115 114 113 112 111 110 108 106 104 102 100 98 96 93 91 90 89 89 88 88 87 86 85 84 84 83 82 80 79 77 76 76 75 74 73 72 72 71 70 69 69 68 67 66 66 66 66 66 66 66 66 66 67 67 68 68 69 69 70
147 146 145 144 143 142 141 140 139 138 137 137 137 136 135 134 131 128 126 124 122 120 119 117 115 114 113 112 111 110 108 106 104 102 100 99 97 96 94 93 91 89 88 87 86 85 85 84 83 83 82 81 80 79 77 76 76 75 74 74 73 72 71 71 70 69 69 68 67 67 66 66 66 65 65 65 65 65 66 66 66 67 67 68 68
141 140 140 139 138 137 137 136 136 135 135 135 134 133 132 129 126 123 121 120 118 117 116 115 114 113 111 109 108 106 105 103 101 99 97 96 95 93 92 91 89 88 86 84 83 82 82 81 81 80 79 78 77 76 75 74 74 73 73 72 72 71 70 70 69 69 68 67 67 66 65 65 64 64 64 64 64 64 64 65 65 65 65 66 66
137 136 136 135 135 135 134 134 134 133 133 132 131 129 126 123 121 119 118 117 115 114 114 113 112 110 108 106 104 103 102 100 99 97 95 93 92 91 89 87 86 85 83 82 80 79 78 78 77 76 75 74 74 73 72 72 71 71 70 70 70 69 69 68 68 67 67 66 65 64 64 63 63 63 63 63 63 63 64 64 64 64 64 64 64
134 134 134 133 133 133 132 132 131 131 130 128 126 124 121 118 117 116 116 115 113 112 111 110 108 106 104 102 101 100 99 98 96 94 92 91 89 87 86 84 83 81 80 79 78 76 75 74 73 72 71 71 70 70 70 69 68 68 68 68 67 67 67 66 66 65 65 64 64 63 62 62 61 61 61 62 62 62 62 62 63 63 62 62 62
133 132 132 132 131 131 130 129 128 127 126 124 122 119 117 115 115 115 114 113 111 109 107 105 104 102 101 99 98 96 95 94 93 91 89 88 86 84 82 81 79 78 77 76 75 73 72 71 69 68 67 67 67 67 67 67 66 66 66 65 65 65 64 64 64 63 63 63 62 62 61 60 60 60 60 60 61 61 61 61 61 61 61 61 62
131 131 130 129 128 127 126 125 124 123 122 120 118 116 115 114 114 114 112 110 107 105 103 102 100 99 97 96 95 94 93 91 90 88 87 85 83 81 79 78 76 75 74 72 71 70 69 67 66 65 64 64 64 64 64 64 64 64 64 63 63 62 62 62 62 61 61 61 60 60 60 59 59 59 59 59 59 60 60 60 60 60 60 61 61
129 128 127 125 124 123 122 122 120 119 118 117 116 115 114 114 113 111 108 106 103 102 101 99 98 96 95 93 92 91 90 89 88 86 84 82 80 78 76 75 73 72 70 69 68 67 65 64 62 61 61 61 61 61 61 61 61 61 61 61 60 60 60 60 59 59 59 59 59 59 59 59 58 58 59 59 59 59 60 60 60 60 60 61 61
125 123 122 121 120 120 119 118 117 116 115 115 114 113 112 111 109 107 104 102 101 100 99 98 96 95 93 91 90 89 88 87 85 83 81 80 77 75 73 72 70 69 67 66 65 64 62 61 60 59 58 58 58 58 58 58 58 58 58 58 58 58 58 57 57 57 57 57 57 57 57 58 58 58 59 59 59 60 60 60 61 61 61 61 61
Wind_Direction
288 289 290 291 292 293 293 294 294 294 294 294 295 295 296 296 296 296 295 295 295 295 295 295 295 296 296 296 296 297 297 298 298 299 299 300 300 300 301 301 302 302 303 304 305 305 306 306 306 306 306 307 307 307 306 307 307 307 307 307 307 307 307 307 308 309 309 308 307 307 307 306 306 306 305 304 303 302 301 300 299 298 298 297 298
287 288 290 291 291 292 292 292 292 292 292 293 294 294 295 295 294 294 294 294 294 294 295 295 295 296 296 296 297 297 298 298 299 299 299 300 300 301 301 302 303 303 304 304 304 305 305 305 305 305 305 306 306 306 306 306 306 307 307 307 307 307 307 307 307 308 308 308 307 307 306 306 306 306 305 304 303 302 301 299 298 297 297 297 297
286 287 289 289 290 291 291 291 291 291 291 292 293 293 293 293 293 293 293 294 294 295 295 295 296 296 297 297 297 298 298 298 298 299 299 300 300 301 302 302 303 303 304 304 304 304 304 304 304 305 305 305 306 305 305 306 306 306 307 307 306 306 306 306 306 307 308 308 307 306 306 306 306 305 304 303 302 301 300 299 298 298 297 297 297
285 286 288 289 289 290 290 290 290 290 291 291 292 293 293 293 293 293 294 294 295 295 295 296 296 296 296 296 297 297 297 298 299 299 300 300 301 301 302 302 302 302 302 302 303 303 303 303 304 304 304 305 305 305 305 305 306 306 306 306 306 306 306 306 307 307 307 308 308 306 305 305 305 303 303 302 301 300 299 299 298 298 297 297 297
285 286 287 288 289 289 289 289 289 290 290 291 292 292 292 293 293 293 293 294 294 294 295 295 295 295 296 296 297 297 298 298 299 300 300 300 300 301 301 301 301 302 302 302 302 302 302 303 303 303 304 304 304 305 305 305 305 306 306 305 305 306 306 306 306 307 307 307 307 306 305 304 303 303 302 302 301 300 300 299 298 297 297 297 297
285 286 287 288 288 288 288 288 289 289 290 291 291 291 292 292 292 293 293 293 294 294 294 295 295 295 296 297 297 298 298 299 299 299 299 299 300 300 300 301 301 301 301 301 302 302 303 303 303 304 304 304 304 305 305 305 305 305 305 305 305 305 306 306 305 305 306 306 306 305 304 303 303 303 303 302 301 301 299 298 298 297 297 297 297
285 286 287 287 287 287 287 288 288 289 289 290 290 291 291 291 292 292 293 293 294 294 295 295 296 296 297 297 297 298 298 298 298 298 298 299 299 300 300 300 300 301 301 301 302 302 303 303 303 303 303 304 304 304 304 304 304 305 304 304 304 304 304 304 304 304 304 304 305 305 304 304 303 303 302 301 300 300 299 298 298 298 298 298 298
286 286 287 287 287 287 287 288 288 289 289 290 290 290 291 291 292 292 293 294 294 295 295 296 296 296 296 297 297 297 297 297 297 298 298 298 299 299 299 300 300 300 301 301 301 302 302 302 302 303 303 303 304 304 304 303 303 303 303 303 303 304 304 304 304 304 304 304 305 304 304 303 303 302 301 300 300 299 298 298 298 298 299 299 299
286 286 286 286 286 287 287 287 288 288 289 290 290 291 291 292 292 293 293 294 294 294 295 295 295 295 296 296 296 297 297 297 297 297 298 298 298 298 299 299 299 299 300 300 300 300 301 302 302 303 303 303 303 303 303 303 303 303 303 303 304 304 304 304 304 304 303 303 303 303 302 302 302 301 300 300 300 299 299 299 299 299 300 300 300
284 285 285 285 286 286 287 287 288 288 289 289 290 290 291 291 291 292 292 293 293 293 294 294 294 295 295 295 296 296 296 296 296 296 296 296 297 297 297 297 298 298 298 299 300 301 301 302 302 303 303 302 302 302 302 302 303 303 303 303 303 303 303 303 302 302 301 301 302 301 301 302 301 301 300 301 301 300 300 300 300 300 300 301 301
283 283 284 284 285 285 286 287 288 288 288 289 289 289 290 290 291 291 291 292 292 292 293 293 293 294 294 294 295 295 295 295 295 295 295 295 296 296 297 297 298 299 299 300 301 301 302 302 302 302 302 301 301 301 301 302 302 302 302 303 302 302 302 302 302 301 301 301 302 302 302 302 301 301 301 301 300 300 300 300 300 300 301 301 301
282 282 283 283 284 285 285 286 286 287 287 288 288 289 289 290 290 290 291 291 292 292 292 293 293 293 293 294 294 294 294 294 294 295 295 296 296 297 298 298 299 300 301 301 301 301 301 301 301 301 301 300 300 301 301 301 301 302 302 302 302 302 302 302 302 302 302 301 302 302 302 302 302 301 301 301 301 301 301 300 301 301 301 301 301
281 282 282 283 283 284 285 285 286 286 287 287 287 288 289 289 290 290 290 291 291 292 292 292 293 293 293 293 294 294 294 294 294 295 295 296 297 298 299 299 300 300 300 300 300 300 300 300 300 300 300 300 300 300 300 301 301 301 301 301 301 301 301 301 302 302 301 301 302 302 302 302 302 302 301 301 301 301 301 301 301 301 301 301 301
281 281 282 283 283 284 284 285 285 286 286 287 287 288 288 289 289 290 290 290 291 291 292 292 292 292 292 293 293 293 294 294 295 295 296 296 297 298 299 299 299 299 299 299 299 299 300 300 299 299 299 300 300 300 300 300 300 300 300 300 300 300 300 300 300 300 301 301 302 303 302 302 302 302 302 302 302 302 301 301 301 301 301 301 301
280 281 282 282 283 283 284 284 285 285 286 286 287 287 288 288 289 289 290 290 290 290 291 291 291 291 292 292 293 293 294 294 295 295 296 296 297 298 298 298 298 298 298 298 298 299 299 299 299 299 299 299 299 299 299 299 299 299 299 299 299 299 299 299 299 300 300 301 302 303 302 302 302 302 302 302 302 302 302 302 302 301 301 301 301
280 281 281 282 282 283 283 284 284 285 285 286 286 287 288 288 288 289 289 289 290 290 290 290 291 291 291 292 293 293 294 294 295 295 296 296 296 297 297 297 297 297 298 298 298 298 298 298 298 298 298 298 298 298 298 298 298 298 298 298 298 299 299 299 299 299 300 301 301 301 301 301 302 302 302 302 302 302 301 301 301 301 301 301 301
279 280 281 281 282 282 283 283 284 285 285 286 287 287 287 288 288 288 289 289 289 289 290 290 291 291 292 293 293 294 294 294 295 295 295 296 296 296 297 297 297 297 297 297 298 298 297 297 297 297 297 297 297 297 297 298 298 298 298 298 299 299 298 298 298 298 299 299 299 299 299 300 300 300 300 300 300 300 300 300 300 300 299 299 299
279 280 280 281 282 282 283 284 284 285 286 286 287 287 287 287 288 288 288 289 289 289 290 291 291 292 292 293 293 294 294 294 294 294 294 295 295 296 296 296 296 296 297 297 297 297 297 297 297 297 297 297 297 297 297 298 298 298 298 298 298 298 297 297 297 298 298 298 298 298 298 298 298 299 299 298 298 298 298 298 298 298 298 298 298
280 280 281 282 282 283 284 284 285 285 286 286 286 286 287 287 287 288 288 289 289 290 290 291 291 292 292 292 293 293 293 293 293 293 294 294 294 295 295 295 296 296 296 296 296 296 296 296 296 296 296 296 297 297 297 297 297 297 298 298 298 297 296 296 296 297 296 296 296 296 297 297 297 297 297 297 296 297 297 297 297 296 297 297 296
280 281 282 282 283 284 284 284 285 285 285 286 286 287 287 287 288 288 289 289 290 290 290 291 291 291 292 292 292 292 293 293 293 293 293 293 294 294 294 295 295 295 295 295 295 295 295 295 295 295 295 296 296 296 297 297 297 297 298 298 297 297 297 296 296 296 296 295 295 295 295 296 295 295 295 295 295 295 295 295 295 295 296 295 295
281 282 282 283 283 284 284 285 285 285 286 286 287 287 288 288 288 289 289 290 290 290 290 291 291 291 291 291 292 292 292 292 293 293 293 293 293 293 294 294 294 294 294 295 295 295 295 295 295 295 295 296 297 297 297 297 297 297 297 297 297 297 296 296 296 295 295 294 294 295 294 294 294 294 294 294 294 294 294 294 294 294 294 294 293
282 282 283 283 284 284 285 285 286 286 287 287 287 288 288 288 289 289 289 289 290 290 290 290 291 291 291 291 291 291 292 292 292 292 293 293 293 293 293 294 294 294 295 295 295 295 295 296 296 296 296 297 297 297 296 296 296 296 296 296 295 295 295 295 294 294 293 293 294 293 293 293 293 293 293 293 293 293 293 293 293 293 293 292 292
283 283 284 284 285 285 286 286 287 287 287 287 288 288 288 289 289 289 289 289 289 290 290 290 290 291 291 291 291 291 292 292 292 292 292 292 293 293 293 294 294 295 295 296 296 297 297 297 297 297 297 296 296 296 295 295 295 294 294 294 293 293 293 293 293 293 292 293 293 292 292 292 292 292 292 292 292 292 292 292 292 292 292 292 292
284 284 285 285 285 286 286 287 287 287 287 288 288 288 288 288 288 289 289 289 289 290 290 290 290 291 291 291 291 291 292 292 292 292 292 292 293 293 294 294 295 296 297 297 298 298 298 298 297 297 296 295 295 294 294 293 293 292 292 292 292 292 292 292 292 291 292 292 291 291 291 291 291 291 291 291 291 291 291 291 291 291 291 291 291
284 284 284 285 285 286 286 286 287 287 287 287 287 288 288 288 288 288 289 289 290 290 290 291 291 291 291 291 292 292 292 292 292 292 292 293 293 294 295 295 296 297 297 297 297 297 297 297 296 296 295 294 293 293 292 292 291 291 291 290 290 290 290 290 290 290 291 290 290 290 290 290 290 290 290 290 290 290 290 290 290 290 290 290 290
284 284 285 285 285 286 286 286 286 286 287 287 287 287 287 288 288 289 289 290 290 290 291 291 291 291 292 292 292 292 293 293 293 293 293 294 295 295 296 296 297 297 296 296 296 296 296 295 295 294 294 293 293 292 292 291 291 290 290 289 289 289 289 289 289 289 289 289 289 289 289 289 289 289 289 289 289 289 289 289 289 289 289 290 290
283 284 284 285 285 285 285 285 286 286 286 287 287 287 288 289 289 289 290 290 291 291 291 291 292 292 292 293 293 293 293 294 294 294 295 295 296 296 297 297 296 296 295 295 295 294 294 294 294 293 293 292 292 292 292 291 291 290 290 289 289 289 289 289 289 289 289 289 288 289 289 288 288 288 288 288 288 288 288 288 288 289 289 289 290
283 283 284 284 284 285 285 285 286 286 287 287 288 288 289 289 290 290 290 291 291 291 291 292 292 292 293 293 293 294 294 295 295 296 296 297 297 297 297 296 296 295 294 294 294 294 293 293 293 292 292 292 292 292 292 292 291 291 290 290 289 289 289 289 289 289 288 288 288 288 288 288 287 287 287 287 287 287 287 287 288 288 288 289 289
283 284 284 284 285 285 286 286 286 287 287 288 288 289 289 289 290 290 290 291 291 291 292 292 292 293 293 294 295 295 296 296 297 297 297 297 297 297 296 296 295 294 294 294 293 293 293 293 293 293 293 292 292 292 292 292 291 291 290 290 289 289 288 288 288 288 288 287 287 287 287 287 286 286 286 286 286 286 286 287 287 288 288 288 289
283 284 284 284 285 285 286 286 287 287 287 288 288 288 289 289 290 290 290 290 291 292 292 293 293 294 295 295 296 297 298 298 298 297 297 297 297 296 296 295 295 295 294 294 293 293 293 293 293 293 293 293 292 292 292 291 291 290 290 289 288 288 287 287 287 287 287 286 286 286 286 285 285 285 285 285 285 285 286 286 287 287 287 287 287
283 284 284 285 285 285 286 286 286 287 287 287 288 288 288 289 289 290 291 291 292 292 293 294 294 295 296 296 297 297 297 297 297 297 297 297 296 296 295 295 295 295 295 294 294 294 294 294 294 294 294 293 293 292 292 291 291 290 289 289 288 288 287 287 286 286 286 285 285 285 284 284 284 284 284 284 284 285 285 285 286 286 286 286 286
283 283 284 284 284 285 285 286 286 286 287 287 288 288 289 289 289 290 291 291 292 292 293 294 294 295 296 296 296 296 296 296 296 296 297 297 296 296 295 295 295 295 295 295 295 295 295 294 294 294 293 293 293 292 292 291 291 290 290 289 288 288 287 287 286 286 286 285 284 284 283 283 283 283 283 283 284 284 285 285 285 285 284 284 284
282 283 283 284 284 285 285 286 286 287 287 288 288 288 289 289 289 289 290 291 291 292 293 293 294 294 295 295 296 296 296 296 297 297 297 297 297 296 296 296 296 295 295 295 295 295 295 295 294 294 293 292 292 292 291 291 291 290 290 289 289 288 288 287 287 286 286 285 284 284 283 283 283 283 283 283 283 283 284 284 283 283 283 283 284
282 283 283 284 284 285 285 286 286 286 287 287 288 288 288 289 289 290 290 290 291 291 292 292 293 294 294 295 295 296 297 297 298 297 297 297 296 296 295 295 295 295 295 295 295 295 295 294 294 293 292 292 291 291 291 291 290 290 290 290 290 289 288 288 287 286 286 285 284 284 284 283 283 283 282 282 282 282 282 282 282 282 283 283 284
282 283 283 283 284 284 285 285 285 286 286 287 287 287 288 288 289 290 291 291 292 292 292 292 293 294 295 296 296 297 297 297 297 297 297 296 295 295 295 295 295 295 295 295 295 295 294 293 292 292 291 291 291 291 290 290 290 290 291 291 291 290 290 289 288 287 287 286 285 284 284 284 283 282 282 282 281 281 281 281 282 282 283 284 284
282 282 283 283 284 284 284 285 285 286 286 287 287 288 288 289 290 290 291 292 292 293 293 294 295 296 297 297 297 297 297 297 297 296 296 296 295 295 295 295 295 295 294 294 294 294 293 292 291 291 290 290 290 290 290 290 290 291 291 291 291 291 291 290 289 289 288 286 286 285 284 283 282 281 281 281 281 281 281 281 282 283 283 283 282
282 282 282 283 283 284 284 285 285 286 286 287 287 288 289 289 290 291 292 292 293 295 296 296 297 297 297 297 297 297 297 297 296 296 296 296 296 295 295 295 295 294 294 294 293 293 292 291 290 290 290 290 290 290 290 290 290 291 291 291 291 290 290 290 290 289 288 286 285 284 283 282 282 281 281 281 281 281 281 282 282 282 282 281 282
282 282 283 283 284 284 284 285 285 286 287 287 288 289 290 290 291 292 293 294 296 297 297 298 298 298 297 297 297 296 296 296 296 296 296 296 296 296 295 295 295 295 294 293 292 292 291 290 290 290 290 290 290 290 290 290 290 290 290 290 289 289 289 289 288 287 286 285 284 283 283 282 282 282 282 282 281 281 281 281 281 281 281 281 282
282 282 283 283 283 284 285 285 286 287 288 288 289 290 291 292 293 294 295 296 297 297 298 298 298 298 298 297 296 296 296 297 297 297 296 296 296 295 295 295 295 295 294 293 292 291 290 290 290 290 290 291 291 291 291 291 291 290 289 289 288 288 287 287 286 286 285 284 284 284 283 283 283 283 282 282 282 281 281 281 281 281 281 282 282
282 282 283 283 284 285 286 286 287 288 289 290 291 292 293 293 294 295 295 296 297 297 298 298 298 298 298 297 297 297 297 297 297 296 296 296 295 295 295 295 295 295 294 293 292 290 290 290 290 290 291 291 291 291 291 291 291 290 289 288 287 287 286 286 285 285 284 284 284 284 284 283 283 283 282 282 282 282 282 282 282 282 282 282 282
282 283 284 285 285 286 287 288 289 290 290 291 292 293 293 294 294 295 296 296 297 298 298 298 298 298 297 297 297 297 297 297 297 296 296 296 296 295 295 295 295 294 293 292 291 291 290 290 290 291 291 291 290 290 290 290 290 289 289 288 287 286 286 285 285 285 285 285 285 284 284 284 283 283 282 282 282 282 282 282 282 282 282 282 282
284 285 285 286 287 287 288 289 289 290 291 291 292 293 293 293 294 295 296 297 298 298 298 298 298 298 297 297 297 297 297 297 297 297 296 296 296 296 296 295 294 294 293 292 291 291 291 290 290 290 290 289 289 289 289 289 288 288 287 286 286 286 285 285 285 285 285 285 285 285 284 284 284 283 283 283 283 283 283 283 283 282 282 282 282
285 285 286 286 287 288 288 289 290 290 291 292 292 293 293 294 295 296 297 298 298 298 298 298 297 297 297 297 297 297 297 297 297 297 297 297 297 296 296 295 295 294 293 292 291 291 290 290 289 289 288 288 288 287 287 287 286 286 286 285 285 285 285 285 285 285 285 285 285 285 285 284 284 284 284 284 284 283 283 283 282 282 282 282 282
285 285 286 286 287 288 289 289 290 291 291 292 292 293 294 295 296 297 298 298 298 298 298 298 297 298 297 297 297 297 297 297 297 297 297 297 297 296 296 296 295 294 293 292 291 291 290 289 288 288 287 287 287 286 286 286 285 285 285 284 284 284 284 284 284 284 284 284 284 284 284 285 285 285 284 284 283 283 282 282 282 282 282 282 282
285 285 286 287 287 288 289 290 290 291 292 292 293 294 295 296 297 298 298 298 298 298 298 298 298 298 298 298 298 298 298 298 297 297 297 297 297 296 296 296 295 294 293 292 291 290 289 288 287 287 287 286 286 285 285 285 284 284 284 284 284 283 283 283 283 283 284 284 284 284 284 284 284 284 283 283 283 282 282 282 282 282 282 282 283
285 286 286 287 288 289 290 290 291 292 292 293 294 295 296 297 298 298 298 297 297 298 298 298 298 298 298 298 298 298 298 297 297 297 297 297 296 296 296 295 294 293 292 291 290 289 288 287 287 286 286 286 285 285 284 284 283 283 283 283 283 283 283 283 283 283 283 284 284 284 284 283 283 283 283 282 282 282 282 282 282 283 283 283 283
286 286 287 288 289 290 291 291 292 293 293 294 294 295 296 297 298 297 297 297 297 298 298 298 297 297 298 298 298 298 297 297 297 297 297 297 296 296 295 294 293 292 292 291 290 289 288 287 286 286 285 285 284 283 283 282 282 282 282 281 282 282 282 283 283 283 283 283 283 283 283 282 282 282 282 282 282 282 282 283 283 283 283 284 284
286 287 288 289 290 291 292 292 293 293 294 294 295 296 297 297 297 297 297 297 297 297 297 297 297 297 297 298 298 298 298 298 298 297 297 297 296 295 295 294 293 292 291 290 289 288 287 286 285 285 284 283 282 282 281 281 281 280 280 280 281 281 282 282 282 282 282 283 283 282 282 282 281 281 281 281 282 282 282 282 283 283 284 284 284
287 288 289 290 291 292 292 293 293 294 295 295 296 297 297 297 296 296 296 297 297 297 297 296 297 297 298 298 299 299 299 298 298 298 297 297 296 296 295 294 293 292 291 290 289 288 287 286 285 284 283 282 281 280 280 280 280 280 280 280 280 281 281 281 281 281 282 282 282 282 282 282 282 282 281 281 281 282 282 282 282 283 283 284 284
288 289 290 291 292 292 293 293 294 294 295 296 296 296 296 296 296 296 297 297 297 297 297 297 298 299 299 299 300 299 299 299 298 298 298 297 296 296 295 294 293 292 291 290 289 288 287 286 285 283 282 281 280 280 280 279 279 279 279 279 279 280 280 280 280 280 281 281 281 281 282 282 282 282 282 282 282 282 283 283 283 284 284 285 285
289 289 291 291 292 292 293 293 294 294 295 295 295 295 295 296 296 296 297 297 297 298 298 299 299 299 300 300 300 299 299 299 299 298 297 297 296 295 294 293 292 291 290 289 288 287 286 285 284 283 282 281 280 280 279 279 279 278 278 278 278 278 279 279 279 279 279 280 280 281 281 282 282 282 282 283 283 284 284 285 285 286 286 287 287
Height
10720 10718 10715 10713 10710 10708 10706 10704 10702 10699 10697 10695 10693 10691 10688 10686 10684 10682 10680 10677 10675 10673 10670 10668 10665 10662 10659 10656 10653 10649 10646 10642 10639 10636 10633 10629 10625 10621 10618 10614 10610 10606 10601 10596 10591 10586 10583 10579 10574 10567 10563 10561 10557 10550 10544 10539 10533 10530 10524 10517 10512 10504 10495 10490 10487 10495 10506 10498 10483 10478 10474 10468 10464 10460 10454 10449 10444 10439 10435 10432 10427 10422 10417 10411 10405
10711 10708 10706 10704 10702 10699 10697 10695 10693 10690 10688 10686 10684 10682 10679 10677 10675 10673 10671 10668 10666 10663 10660 10658 10654 10651 10648 10644 10641 10637 10634 10630 10627 10624 10620 10617 10613 10609 10605 10601 10597 10593 10588 10584 10579 10575 10571 10568 10562 10556 10551 10549 10545 10538 10532 10528 10521 10517 10512 10504 10499 10494 10483 10476 10474 10476 10485 10488 10476 10464 10460 10455 10452 10448 10442 10436 10432 10428 10424 10420 10416 10412 10407 10401 10396
10701 10699 10697 10695 10693 10691 10688 10686 10684 10682 10680 10677 10675 10672 10670 10668 10665 10663 10661 10658 10655 10652 10648 10645 10642 10638 10635 10631 10628 10625 10621 10618 10615 10612 10609 10605 10601 10597 10592 10588 10584 10580 10577 10572 10568 10564 10559 10556 10550 10544 10540 10537 10533 10526 10519 10516 10509 10504 10500 10492 10485 10482 10473 10464 10461 10459 10463 10471 10468 10454 10445 10443 10440 10435 10430 10426 10421 10417 10413 10409 10404 10400 10394 10389 10385
10692 10690 10688 10686 10684 10681 10679 10677 10674 10672 10670 10667 10665 10662 10659 10656 10654 10651 10649 10646 10643 10640 10637 10634 10630 10627 10624 10620 10617 10614 10610 10607 10603 10600 10596 10593 10590 10585 10581 10577 10573 10569 10566 10561 10557 10553 10549 10545 10539 10533 10529 10526 10521 10514 10507 10502 10497 10491 10487 10480 10472 10467 10461 10452 10446 10442 10441 10448 10453 10443 10432 10429 10427 10423 10418 10415 10411 10406 10402 10397 10392 10387 10382 10378 10374
10683 10681 10679 10677 10674 10671 10669 10666 10664 10662 10659 10656 10654 10651 10648 10645 10643 10640 10638 10635 10632 10629 10626 10623 10620 10617 10613 10610 10606 10602 10598 10595 10591 10587 10584 10581 10578 10575 10571 10567 10563 10559 10554 10550 10545 10541 10537 10533 10528 10522 10517 10513 10509 10502 10495 10489 10484 10478 10472 10466 10458 10452 10447 10440 10432 10427 10424 10426 10431 10430 10421 10414 10413 10410 10406 10401 10397 10393 10389 10384 10380 10375 10371 10367 10363
10674 10672 10669 10666 10664 10661 10658 10656 10654 10651 10648 10646 10643 10640 10637 10635 10632 10629 10627 10624 10621 10618 10615 10612 10608 10605 10601 10597 10593 10589 10585 10582 10579 10576 10572 10569 10566 10563 10560 10556 10552 10548 10543 10538 10533 10528 10524 10519 10513 10507 10501 10498 10494 10488 10481 10475 10469 10464 10458 10451 10445 10439 10434 10430 10421 10414 10412 10410 10412 10413 10409 10402 10398 10396 10393 10387 10382 10379 10375 10370 10366 10362 10359 10356 10351
10663 10661 10658 10655 10653 10650 10648 10645 10643 10640 10638 10635 10632 10629 10626 10624 10621 10618 10615 10612 10609 10606 10602 10599 10595 10591 10588 10584 10580 10576 10572 10569 10566 10564 10560 10557 10554 10551 10548 10544 10539 10535 10530 10525 10519 10514 10509 10504 10499 10494 10487 10482 10478 10472 10466 10461 10455 10451 10445 10438 10433 10428 10423 10419 10412 10405 10400 10397 10396 10395 10392 10388 10384 10381 10379 10374 10369 10365 10361 10356 10353 10350 10347 10343 10339
10650 10648 10645 10642 10640 10638 10635 10633 10631 10628 10625 10623 10620 10617 10614 10611 10608 10605 10602 10599 10596 10593 10589 10586 10582 10579 10575 10572 10568 10564 10560 10556 10553 10551 10548 10545 10542 10539 10535 10531 10527 10522 10517 10513 10507 10501 10496 10492 10486 10480 10474 10468 10463 10457 10452 10446 10442 10439 10434 10425 10419 10416 10411 10405 10399 10392 10385 10381 10380 10379 10376 10374 10371 10367 10364 10361 10357 10352 10347 10342 10339 10337 10334 10330 10326
10637 10634 10632 10630 10627 10625 10623 10621 10618 10615 10612 10610 10607 10604 10602 10599 10596 10593 10590 10587 10584 10580 10577 10574 10571 10567 10564 10560 10556 10551 10547 10542 10539 10537 10534 10532 10530 10527 10524 10520 10515 10512 10507 10502 10497 10490 10484 10479 10473 10466 10460 10454 10448 10442 10436 10430 10425 10422 10418 10411 10403 10399 10395 10390 10384 10378 10372 10368 10367 10365 10362 10362 10359 10353 10350 10348 10343 10338 10334 10328 10324 10321 10318 10315 10311
10625 10622 10620 10618 10616 10614 10611 10608 10606 10603 10600 10598 10595 10592 10590 10587 10585 10582 10579 10576 10573 10570 10567 10563 10560 10557 10553 10549 10545 10539 10534 10529 10525 10523 10520 10518 10518 10516 10514 10510 10505 10501 10496 10491 10485 10478 10471 10465 10459 10452 10446 10439 10433 10426 10421 10415 10408 10404 10401 10397 10390 10384 10380 10377 10372 10366 10360 10356 10356 10353 10349 10349 10346 10338 10335 10334 10328 10323 10319 10313 10308 10305 10302 10299 10295
10614 10612 10609 10607 10605 10602 10599 10597 10594 10591 10589 10586 10583 10581 10579 10577 10574 10572 10569 10565 10562 10559 10556 10553 10549 10546 10542 10539 10534 10529 10523 10518 10513 10510 10507 10504 10502 10502 10500 10496 10491 10485 10480 10475 10469 10464 10457 10451 10446 10440 10433 10426 10419 10413 10407 10401 10395 10390 10387 10382 10376 10369 10364 10360 10357 10351 10344 10340 10340 10338 10334 10332 10330 10323 10319 10318 10313 10308 10305 10299 10293 10289 10285 10283 10280
10603 10601 10599 10597 10595 10592 10589 10587 10584 10581 10578 10575 10572 10570 10568 10565 10563 10560 10557 10554 10551 10547 10544 10541 10537 10533 10530 10526 10522 10518 10511 10505 10500 10495 10492 10488 10484 10484 10482 10478 10473 10467 10461 10456 10451 10447 10442 10438 10433 10426 10419 10411 10405 10399 10392 10387 10382 10377 10372 10368 10362 10354 10347 10340 10336 10332 10327 10322 10322 10323 10320 10315 10313 10310 10304 10299 10297 10293 10290 10285 10279 10274 10271 10267 10263
10590 10588 10587 10585 10583 10580 10578 10575 10572 10569 10566 10563 10561 10558 10556 10554 10551 10549 10546 10542 10538 10535 10531 10527 10524 10519 10516 10513 10510 10505 10498 10491 10485 10480 10476 10472 10467 10465 10464 10460 10456 10451 10445 10439 10434 10429 10425 10421 10417 10412 10403 10394 10388 10383 10377 10373 10369 10364 10360 10354 10349 10342 10334 10326 10318 10312 10307 10304 10303 10306 10305 10298 10294 10294 10289 10283 10280 10277 10273 10269 10264 10260 10256 10252 10248
10577 10576 10574 10572 10570 10568 10565 10563 10560 10557 10554 10551 10549 10546 10544 10541 10539 10536 10534 10530 10527 10523 10519 10515 10511 10506 10503 10500 10497 10493 10486 10477 10471 10465 10460 10456 10451 10448 10447 10443 10440 10436 10430 10424 10419 10415 10410 10405 10401 10396 10388 10379 10371 10364 10360 10357 10354 10351 10347 10342 10337 10331 10324 10316 10307 10298 10291 10287 10286 10288 10288 10281 10275 10275 10273 10267 10263 10260 10256 10253 10248 10244 10241 10236 10232
10565 10563 10562 10559 10558 10555 10552 10550 10547 10545 10542 10539 10537 10534 10531 10529 10527 10524 10522 10519 10515 10511 10507 10503 10499 10494 10489 10486 10484 10481 10474 10464 10456 10451 10445 10440 10436 10433 10430 10428 10425 10421 10417 10411 10405 10400 10396 10389 10384 10379 10372 10365 10356 10347 10342 10339 10337 10336 10333 10329 10324 10318 10313 10305 10295 10286 10279 10274 10271 10270 10268 10264 10259 10256 10254 10250 10246 10243 10239 10236 10232 10227 10223 10219 10216
10554 10552 10550 10547 10545 10543 10540 10538 10535 10532 10530 10527 10524 10521 10518 10516 10514 10511 10509 10506 10502 10499 10495 10491 10487 10482 10477 10472 10469 10468 10463 10451 10441 10436 10431 10425 10420 10418 10414 10411 10409 10405 10401 10396 10390 10386 10380 10372 10366 10362 10357 10351 10343 10333 10325 10321 10319 10319 10317 10313 10309 10304 10299 10291 10280 10272 10267 10262 10258 10253 10250 10248 10244 10239 10237 10234 10229 10225 10222 10219 10215 10210 10206 10203 10200
10541 10540 10538 10535 10533 10531 10528 10526 10523 10520 10517 10515 10512 10508 10505 10502 10500 10497 10496 10493 10489 10485 10481 10478 10473 10468 10462 10457 10453 10451 10449 10440 10427 10420 10415 10409 10403 10401 10398 10393 10391 10388 10385 10381 10376 10371 10365 10356 10348 10343 10340 10336 10329 10320 10312 10304 10300 10300 10298 10295 10293 10289 10284 10275 10265 10259 10255 10250 10245 10239 10235 10233 10229 10224 10222 10218 10212 10208 10205 10202 10199 10194 10191 10188 10184
10529 10527 10524 10522 10520 10518 10515 10513 10510 10507 10504 10501 10498 10495 10491 10488 10485 10483 10480 10478 10475 10471 10467 10464 10460 10454 10448 10442 10437 10434 10432 10427 10416 10405 10400 10395 10387 10383 10381 10378 10375 10372 10368 10365 10361 10355 10348 10341 10333 10324 10320 10317 10313 10306 10298 10288 10281 10279 10278 10275 10275 10273 10266 10256 10250 10247 10243 10236 10230 10224 10220 10217 10213 10209 10207 10202 10197 10193 10190 10186 10182 10179 10175 10172 10168
10515 10512 10510 10508 10506 10504 10501 10499 10496 10494 10491 10488 10485 10481 10478 10474 10471 10468 10465 10462 10460 10456 10452 10448 10446 10442 10435 10427 10422 10418 10414 10412 10405 10394 10385 10380 10373 10366 10362 10361 10358 10355 10352 10350 10347 10340 10333 10325 10318 10310 10302 10297 10295 10290 10283 10274 10265 10261 10259 10256 10255 10255 10248 10239 10235 10233 10228 10221 10215 10209 10205 10201 10197 10193 10190 10185 10182 10178 10174 10170 10166 10163 10160 10157 10153
10500 10498 10496 10493 10491 10489 10487 10484 10482 10480 10477 10474 10470 10466 10463 10460 10456 10452 10449 10445 10443 10440 10435 10431 10430 10429 10423 10415 10409 10403 10397 10394 10391 10383 10372 10365 10358 10350 10345 10342 10339 10335 10334 10333 10329 10325 10319 10312 10304 10296 10287 10280 10276 10272 10266 10258 10249 10243 10240 10236 10234 10233 10229 10222 10219 10215 10210 10204 10199 10194 10191 10186 10181 10177 10172 10168 10165 10162 10158 10154 10150 10147 10145 10142 10138
10486 10484 10482 10479 10476 10474 10472 10469 10467 10464 10461 10459 10455 10451 10446 10443 10440 10437 10433 10429 10426 10422 10419 10414 10412 10412 10409 10402 10395 10389 10382 10377 10374 10369 10360 10350 10342 10333 10327 10324 10319 10314 10312 10313 10309 10304 10300 10296 10290 10282 10273 10265 10259 10253 10247 10240 10232 10226 10222 10217 10212 10210 10207 10203 10201 10197 10191 10186 10182 10179 10175 10170 10165 10161 10156 10152 10149 10146 10142 10139 10134 10132 10131 10127 10123
10473 10470 10467 10465 10462 10459 10456 10453 10451 10448 10445 10442 10439 10435 10430 10426 10423 10420 10416 10413 10410 10406 10402 10397 10394 10394 10393 10388 10381 10374 10367 10361 10357 10351 10344 10336 10327 10318 10309 10305 10301 10294 10290 10290 10288 10283 10278 10275 10271 10265 10257 10249 10242 10235 10229 10223 10216 10209 10204 10198 10193 10189 10185 10183 10182 10179 10173 10169 10167 10163 10158 10153 10148 10145 10141 10137 10134 10131 10127 10124 10120 10118 10116 10114 10110
10458 10455 10452 10449 10446 10443 10440 10437 10434 10431 10428 10424 10421 10418 10414 10410 10406 10402 10398 10395 10392 10389 10385 10379 10375 10374 10374 10372 10367 10360 10352 10346 10340 10333 10325 10317 10311 10302 10293 10286 10281 10274 10269 10267 10264 10260 10255 10252 10248 10243 10237 10231 10223 10216 10211 10205 10199 10192 10187 10181 10175 10170 10166 10164 10162 10159 10155 10153 10151 10146 10141 10137 10133 10130 10126 10123 10120 10116 10112 10109 10106 10103 10102 10100 10097
10443 10440 10437 10434 10431 10428 10425 10421 10418 10414 10410 10407 10404 10401 10397 10393 10389 10384 10379 10376 10372 10370 10367 10361 10356 10353 10352 10351 10350 10345 10337 10330 10324 10317 10307 10298 10293 10287 10279 10270 10262 10255 10250 10246 10241 10235 10232 10229 10225 10220 10216 10210 10203 10197 10193 10188 10181 10175 10169 10164 10158 10154 10149 10146 10144 10141 10140 10138 10134 10130 10126 10122 10118 10115 10112 10109 10105 10102 10098 10095 10093 10090 10088 10086 10083
10428 10425 10422 10418 10415 10413 10409 10405 10401 10397 10393 10389 10386 10382 10378 10375 10371 10366 10361 10356 10353 10350 10347 10342 10336 10332 10330 10329 10328 10326 10321 10314 10308 10301 10290 10281 10276 10271 10264 10256 10247 10237 10231 10226 10221 10215 10209 10206 10203 10198 10193 10187 10180 10176 10174 10170 10163 10157 10152 10146 10142 10138 10134 10129 10127 10126 10125 10122 10118 10114 10111 10108 10104 10100 10097 10095 10092 10088 10085 10082 10080 10078 10076 10073 10070
10413 10410 10406 10403 10400 10397 10393 10389 10384 10380 10376 10371 10367 10363 10360 10356 10353 10349 10343 10338 10334 10330 10325 10321 10315 10310 10307 10306 10304 10302 10299 10295 10290 10282 10273 10265 10259 10253 10247 10240 10232 10222 10214 10208 10203 10197 10191 10186 10180 10175 10170 10163 10157 10154 10152 10150 10145 10139 10134 10129 10125 10122 10118 10114 10111 10111 10109 10106 10103 10100 10097 10094 10090 10086 10083 10081 10078 10075 10072 10069 10067 10065 10063 10061 10058
10398 10394 10391 10388 10384 10380 10377 10372 10368 10364 10358 10354 10349 10345 10341 10337 10334 10330 10324 10317 10314 10310 10304 10299 10294 10288 10285 10284 10282 10279 10277 10275 10270 10262 10254 10249 10242 10234 10229 10223 10214 10204 10197 10190 10183 10179 10175 10168 10160 10154 10148 10142 10137 10133 10131 10129 10125 10121 10116 10112 10109 10106 10102 10098 10096 10095 10094 10091 10088 10085 10083 10080 10076 10073 10070 10067 10064 10061 10059 10056 10054 10053 10051 10049 10047
10383 10379 10376 10371 10367 10363 10359 10355 10351 10346 10341 10336 10332 10327 10323 10319 10315 10310 10303 10296 10292 10289 10285 10280 10274 10267 10263 10262 10259 10256 10256 10256 10249 10240 10234 10229 10223 10215 10209 10203 10194 10185 10177 10169 10163 10160 10157 10150 10142 10135 10129 10124 10119 10115 10112 10109 10106 10102 10098 10095 10092 10089 10086 10082 10080 10079 10078 10075 10072 10070 10068 10065 10062 10059 10057 10054 10051 10049 10046 10044 10042 10041 10039 10037 10035
10367 10363 10359 10354 10350 10346 10341 10336 10332 10328 10323 10320 10316 10311 10306 10301 10297 10293 10287 10277 10270 10267 10264 10261 10254 10247 10242 10240 10235 10231 10231 10232 10229 10221 10214 10209 10202 10192 10184 10178 10172 10165 10157 10148 10143 10141 10138 10131 10124 10118 10112 10107 10103 10098 10095 10091 10088 10084 10081 10078 10075 10072 10069 10066 10064 10063 10062 10060 10057 10055 10052 10050 10047 10045 10043 10041 10038 10036 10034 10032 10030 10029 10027 10024 10022
10350 10345 10341 10337 10333 10329 10324 10319 10314 10310 10306 10303 10300 10296 10291 10285 10278 10273 10269 10263 10255 10247 10241 10238 10233 10226 10221 10219 10215 10208 10203 10202 10200 10197 10194 10190 10184 10173 10161 10151 10146 10142 10136 10127 10122 10121 10118 10112 10107 10102 10095 10089 10085 10081 10077 10074 10071 10068 10065 10061 10058 10056 10053 10051 10049 10048 10047 10044 10042 10040 10037 10035 10033 10031 10029 10027 10024 10023 10021 10020 10018 10017 10015 10012 10009
10333 10329 10325 10321 10317 10312 10307 10302 10298 10293 10288 10284 10281 10278 10276 10271 10264 10255 10248 10244 10240 10234 10226 10218 10211 10204 10198 10196 10196 10193 10187 10180 10173 10169 10167 10165 10161 10154 10144 10133 10124 10118 10112 10105 10101 10101 10097 10091 10088 10085 10077 10070 10067 10063 10059 10057 10053 10050 10048 10045 10041 10039 10037 10035 10034 10032 10031 10029 10026 10024 10023 10020 10018 10016 10015 10013 10011 10010 10009 10007 10006 10004 10002 10000 9997
10317 10313 10309 10304 10300 10295 10290 10285 10281 10276 10271 10267 10262 10258 10255 10253 10251 10245 10237 10228 10221 10217 10213 10206 10198 10190 10181 10173 10169 10169 10170 10166 10158 10151 10145 10140 10135 10129 10124 10117 10109 10100 10091 10084 10081 10081 10076 10071 10069 10067 10060 10054 10050 10045 10042 10039 10037 10033 10031 10028 10025 10023 10021 10019 10018 10017 10015 10013 10011 10009 10008 10005 10003 10002 10001 9999 9997 9996 9995 9994 9993 9991 9989 9986 9984
10301 10296 10292 10287 10283 10277 10272 10268 10263 10258 10254 10249 10244 10239 10234 10231 10230 10230 10228 10221 10213 10204 10197 10190 10183 10177 10171 10161 10150 10142 10140 10141 10141 10135 10127 10119 10112 10105 10100 10098 10095 10084 10072 10066 10064 10062 10057 10053 10051 10047 10042 10038 10035 10030 10025 10022 10020 10017 10015 10012 10009 10007 10005 10004 10003 10002 10000 9998 9996 9994 9992 9990 9989 9988 9987 9985 9984 9983 9982 9981 9979 9977 9975 9973 9971
10284 10280 10275 10271 10266 10260 10255 10251 10246 10241 10236 10231 10226 10221 10216 10211 10207 10206 10205 10206 10204 10199 10192 10181 10169 10160 10154 10149 10140 10129 10119 10115 10114 10113 10108 10100 10092 10084 10078 10078 10077 10068 10057 10049 10046 10043 10039 10036 10033 10029 10023 10021 10019 10015 10010 10007 10005 10002 10000 9997 9994 9992 9990 9989 9988 9987 9985 9983 9981 9979 9978 9977 9975 9974 9972 9972 9971 9970 9968 9967 9965 9963 9961 9959 9958
10267 10263 10258 10254 10249 10244 10239 10234 10228 10224 10219 10214 10209 10203 10198 10193 10189 10185 10182 10180 10180 10180 10180 10174 10163 10149 10136 10127 10121 10117 10110 10100 10093 10089 10086 10080 10073 10066 10060 10059 10058 10053 10044 10036 10030 10025 10021 10018 10014 10011 10007 10005 10002 9999 9996 9993 9990 9988 9986 9983 9980 9977 9975 9974 9973 9972 9970 9969 9967 9966 9964 9963 9962 9960 9959 9958 9957 9956 9955 9953 9951 9949 9948 9947 9945
10250 10246 10241 10236 10231 10226 10221 10216 10211 10206 10201 10195 10190 10185 10180 10175 10170 10166 10162 10159 10155 10154 10154 10152 10146 10137 10124 10109 10098 10094 10093 10087 10077 10068 10063 10058 10052 10046 10042 10040 10040 10037 10031 10024 10016 10010 10005 10000 9996 9994 9993 9990 9988 9985 9982 9980 9977 9975 9973 9970 9967 9964 9962 9960 9959 9958 9957 9955 9953 9952 9951 9950 9948 9948 9946 9945 9944 9943 9942 9940 9939 9937 9936 9934 9932
10233 10228 10224 10219 10214 10209 10204 10198 10193 10187 10182 10177 10171 10166 10161 10157 10151 10146 10142 10138 10134 10131 10129 10126 10122 10116 10107 10096 10082 10074 10072 10069 10061 10051 10044 10037 10032 10027 10022 10020 10020 10019 10015 10010 10004 9997 9990 9984 9980 9979 9978 9976 9973 9971 9969 9967 9965 9963 9961 9958 9955 9952 9950 9948 9947 9945 9944 9942 9941 9939 9938 9937 9936 9935 9934 9933 9932 9931 9930 9928 9927 9926 9924 9922 9920
10215 10211 10206 10201 10196 10191 10186 10181 10175 10170 10164 10158 10153 10148 10143 10137 10132 10127 10122 10118 10114 10110 10106 10102 10097 10090 10083 10076 10067 10058 10054 10051 10044 10035 10027 10020 10013 10008 10004 10000 9999 9999 9997 9993 9988 9982 9975 9969 9966 9964 9962 9961 9959 9957 9955 9954 9953 9951 9949 9946 9943 9940 9938 9937 9935 9934 9932 9931 9929 9927 9926 9925 9925 9924 9922 9921 9920 9919 9918 9917 9915 9914 9912 9910 9909
10197 10193 10187 10183 10178 10173 10168 10163 10158 10152 10146 10140 10134 10128 10123 10118 10113 10108 10103 10099 10096 10091 10086 10081 10076 10068 10060 10052 10044 10039 10037 10034 10026 10017 10011 10005 9998 9992 9988 9984 9981 9979 9977 9974 9970 9965 9959 9955 9952 9949 9947 9946 9944 9942 9940 9940 9939 9937 9935 9933 9930 9928 9926 9925 9924 9922 9921 9920 9918 9917 9916 9915 9914 9912 9911 9910 9909 9908 9906 9905 9904 9903 9901 9899 9898
10179 10173 10168 10164 10159 10154 10150 10145 10139 10133 10128 10122 10115 10109 10103 10098 10093 10089 10085 10082 10078 10074 10068 10062 10056 10049 10040 10030 10022 10018 10018 10016 10009 10000 9993 9988 9983 9978 9974 9970 9966 9962 9958 9955 9951 9946 9942 9940 9938 9935 9933 9931 9929 9927 9926 9925 9924 9923 9921 9919 9917 9915 9914 9913 9912 9911 9909 9908 9907 9906 9905 9904 9903 9902 9900 9899 9897 9896 9895 9894 9893 9891 9890 9888 9887
10159 10154 10149 10145 10140 10135 10130 10125 10120 10115 10109 10103 10097 10091 10086 10080 10075 10071 10068 10065 10060 10056 10051 10045 10038 10030 10021 10012 10005 10000 9997 9996 9991 9984 9976 9970 9966 9963 9960 9957 9953 9949 9943 9938 9933 9930 9927 9926 9924 9922 9919 9917 9915 9914 9912 9911 9910 9908 9906 9905 9903 9902 9901 9900 9899 9899 9898 9897 9896 9895 9894 9893 9892 9891 9889 9888 9886 9885 9884 9883 9882 9880 9879 9877 9875
10139 10135 10130 10125 10120 10116 10111 10106 10102 10097 10092 10086 10080 10074 10068 10063 10059 10055 10052 10047 10042 10037 10032 10027 10020 10013 10004 9996 9990 9985 9980 9976 9972 9967 9961 9954 9949 9946 9944 9942 9939 9934 9929 9924 9919 9916 9913 9912 9910 9908 9906 9903 9901 9900 9899 9898 9897 9895 9893 9892 9891 9890 9889 9888 9887 9887 9886 9885 9884 9883 9882 9881 9880 9879 9878 9876 9875 9874 9873 9872 9870 9868 9867 9865 9864
10120 10115 10111 10106 10102 10097 10092 10088 10084 10079 10074 10069 10063 10057 10051 10047 10043 10039 10035 10030 10024 10017 10012 10007 10002 9996 9989 9982 9975 9970 9965 9960 9955 9950 9945 9939 9933 9930 9927 9924 9922 9919 9915 9911 9907 9903 9900 9898 9896 9894 9892 9890 9888 9887 9886 9885 9884 9882 9881 9879 9879 9878 9877 9876 9876 9875 9874 9873 9873 9872 9871 9870 9869 9867 9866 9865 9864 9863 9862 9860 9859 9857 9856 9854 9853
10102 10097 10093 10089 10084 10080 10075 10072 10067 10062 10057 10052 10045 10040 10035 10031 10027 10023 10019 10012 10006 10000 9993 9988 9983 9978 9973 9967 9960 9954 9949 9944 9940 9935 9930 9925 9919 9915 9911 9908 9905 9902 9899 9897 9894 9890 9887 9884 9882 9880 9879 9877 9876 9874 9873 9872 9871 9870 9868 9867 9866 9866 9865 9865 9864 9863 9862 9862 9861 9861 9860 9859 9858 9857 9856 9854 9853 9852 9851 9849 9848 9847 9845 9844 9842
10084 10080 10076 10072 10068 10064 10060 10056 10051 10046 10041 10035 10029 10024 10019 10015 10011 10007 10001 9995 9989 9984 9977 9971 9966 9961 9956 9951 9945 9939 9933 9928 9924 9920 9916 9911 9906 9901 9897 9893 9890 9886 9884 9882 9880 9878 9875 9872 9870 9868 9867 9865 9864 9863 9861 9860 9859 9857 9856 9855 9854 9854 9853 9853 9852 9851 9851 9850 9850 9850 9849 9848 9847 9846 9845 9843 9842 9841 9840 9839 9837 9836 9835 9834 9832
10067 10064 10060 10056 10053 10048 10044 10039 10035 10029 10024 10018 10013 10008 10004 10000 9996 9990 9983 9977 9973 9968 9962 9955 9949 9944 9940 9935 9930 9924 9918 9913 9909 9905 9901 9897 9893 9889 9885 9881 9877 9873 9871 9869 9867 9865 9863 9861 9859 9857 9856 9854 9853 9851 9850 9849 9848 9846 9845 9844 9843 9842 9841 9841 9840 9840 9839 9839 9839 9839 9838 9837 9836 9835 9834 9833 9831 9830 9829 9828 9827 9826 9825 9823 9822
10050 10047 10044 10040 10036 10032 10027 10023 10017 10012 10006 10001 9996 9992 9989 9985 9980 9973 9967 9962 9957 9953 9947 9940 9934 9930 9925 9921 9916 9910 9905 9899 9895 9891 9887 9883 9880 9876 9872 9869 9865 9861 9858 9856 9854 9852 9850 9849 9848 9847 9845 9843 9842 9840 9838 9838 9837 9836 9835 9834 9832 9831 9831 9830 9830 9829 9829 9828 9828 9828 9827 9827 9826 9825 9823 9822 9821 9820 9819 9818 9816 9815 9814 9813 9812
10034 10031 10027 10023 10019 10015 10010 10005 10000 9994 9989 9984 9980 9977 9973 9969 9963 9957 9951 9947 9943 9938 9932 9926 9920 9916 9912 9907 9902 9897 9891 9886 9881 9877 9873 9870 9866 9863 9860 9856 9853 9849 9847 9844 9841 9840 9838 9837 9836 9835 9834 9832 9830 9829 9827 9826 9826 9825 9824 9824 9823 9822 9821 9820 9820 9819 9818 9817 9817 9816 9816 9816 9815 9814 9813 9812 9811 9810 9809 9807 9806 9805 9804 9803 9801
10018 10014 10011 10007 10003 9998 9994 9988 9983 9978 9973 9968 9965 9961 9957 9952 9946 9941 9936 9932 9927 9922 9917 9912 9907 9903 9898 9893 9887 9882 9877 9872 9868 9864 9860 9856 9853 9850 9847 9844 9840 9837 9835 9832 9830 9828 9827 9826 9825 9824 9823 9821 9819 9818 9817 9816 9815 9814 9814 9813 9813 9812 9811 9811 9810 9809 9808 9807 9806 9806 9805 9805 9804 9803 9803 9802 9801 9800 9799 9797 9796 9795 9794 9793 9792
10002 9999 9995 9991 9987 9982 9977 9972 9967 9962 9958 9953 9949 9945 9940 9935 9930 9925 9920 9916 9911 9906 9901 9897 9892 9888 9884 9879 9874 9868 9863 9859 9855 9851 9847 9843 9840 9837 9834 9831 9828 9826 9823 9821 9819 9817 9816 9815 9814 9813 9812 9810 9809 9808 9807 9806 9805 9805 9804 9803 9803 9802 9802 9801 9800 9799 9798 9797 9796 9795 9795 9794 9793 9792 9792 9791 9790 9789 9788 9787 9786 9785 9784 9783 9782
9986 9983 9980 9976 9971 9966 9961 9957 9952 9948 9943 9939 9934 9930 9924 9919 9914 9909 9905 9901 9896 9891 9886 9882 9878 9874 9870 9866 9861 9856 9851 9847 9842 9838 9834 9831 9828 9825 9823 9820 9817 9815 9813 9810 9809 9807 9806 9805 9804 9803 9802 9801 9799 9798 9797 9796 9795 9795 9794 9794 9793 9793 9792 9791 9791 9790 9789 9788 9787 9786 9785 9784 9783 9782 9781 9780 9779 9779 9778 9777 9776 9775 9774 9773 9771